Volver al catálogo

ARIANE 3 DEB

ActivoHEO
NORAD 27025·DEBRIS·🇫🇷 France

Lanzado Mar 28, 1986 desde Guiana Space Centre

Loading…

Próximos Pases (próximas 24 horas)

TLE

ActualizadoSource: Space-Track

Época: Sep 12, 2026, 05:04 UTC

1 27025U 86026J   26255.21151981 -.00000053  00000-0  10033-2 0  9994
2 27025   6.8632 322.1425 7032255  59.7802 351.1319  2.49770205225522

Sigue ARIANE 3 DEB en tiempo real con AllMySat

Download on the App Store